CPA974 ZSAM-VHHH

Flight info

Callsign CPA974
Flight time N/A
Altitude 25600
Route NUSPA9Z NUSPA W597 IKATA A470 BEBEM/N0495F256 A470 DOTMI/N0481F240 V512 ABBEY
Aircraft A359/H-SDE2E3GHIJ3J4J5LM1ORWXY/LB1D1

Departure

Time N/A
Airport Xiamen Gaoqi International Airport (ZSAM)

Arrival

Time 2026-04-30 06:24
Airport Hong Kong International Airport (VHHH)
Time Latitude Longitude Altitude Speed Heading
2026-04-30 06:12 22.00161 113.98074 4929 ft 260 kts 298°
2026-04-30 06:12 22.01038 113.96374 4806 ft 259 kts 298°
2026-04-30 06:12 22.01915 113.94672 4677 ft 260 kts 298°
2026-04-30 06:13 22.02775 113.92963 4561 ft 259 kts 295°
2026-04-30 06:13 22.03433 113.91153 4468 ft 260 kts 288°
2026-04-30 06:13 22.03979 113.89294 4372 ft 260 kts 287°
2026-04-30 06:13 22.04509 113.87430 4264 ft 260 kts 287°
2026-04-30 06:14 22.05031 113.85562 4172 ft 260 kts 287°
2026-04-30 06:14 22.05543 113.83692 4066 ft 260 kts 287°
2026-04-30 06:14 22.06049 113.81822 3970 ft 261 kts 287°
2026-04-30 06:14 22.06549 113.79944 3873 ft 261 kts 287°
2026-04-30 06:15 22.07043 113.78063 3769 ft 261 kts 287°
2026-04-30 06:15 22.07537 113.76180 3694 ft 259 kts 287°
2026-04-30 06:15 22.08003 113.74366 3651 ft 243 kts 287°
2026-04-30 06:15 22.08433 113.72664 3612 ft 228 kts 288°
2026-04-30 06:16 22.09097 113.71198 3567 ft 210 kts 308°
2026-04-30 06:16 22.09980 113.70004 3548 ft 201 kts 312°
2026-04-30 06:16 22.10889 113.68866 3478 ft 199 kts 313°
2026-04-30 06:16 22.11798 113.67739 3371 ft 199 kts 313°
2026-04-30 06:17 22.12720 113.66634 3282 ft 198 kts 319°
2026-04-30 06:17 22.13807 113.65735 3210 ft 196 kts 327°
2026-04-30 06:17 22.14948 113.64925 3137 ft 196 kts 330°
2026-04-30 06:17 22.16221 113.64229 3094 ft 221 kts 338°
2026-04-30 06:18 22.17719 113.63499 3047 ft 247 kts 338°
2026-04-30 06:18 22.19395 113.63092 2972 ft 250 kts
2026-04-30 06:18 22.21075 113.63505 2936 ft 247 kts 19°
2026-04-30 06:18 22.22574 113.64262 2895 ft 228 kts 31°
2026-04-30 06:19 22.23651 113.65374 2871 ft 208 kts 55°
2026-04-30 06:19 22.24075 113.66816 2744 ft 199 kts 81°
2026-04-30 06:19 22.24279 113.68270 2634 ft 195 kts 75°
2026-04-30 06:19 22.24618 113.69690 2488 ft 195 kts 70°
2026-04-30 06:20 22.25040 113.71077 2417 ft 195 kts 68°
2026-04-30 06:20 22.25476 113.72419 2305 ft 187 kts 68°
2026-04-30 06:20 22.25894 113.73709 2318 ft 181 kts 67°
2026-04-30 06:20 22.26308 113.74989 2307 ft 181 kts 68°
2026-04-30 06:21 22.26728 113.76288 2300 ft 181 kts 69°
2026-04-30 06:21 22.27140 113.77570 2303 ft 180 kts 67°
2026-04-30 06:21 22.27535 113.78798 2127 ft 167 kts 68°
2026-04-30 06:21 22.27901 113.79935 1918 ft 156 kts 67°
2026-04-30 06:22 22.28249 113.81009 1706 ft 147 kts 67°
2026-04-30 06:22 22.28578 113.82026 1505 ft 140 kts 66°
2026-04-30 06:22 22.28900 113.83021 1338 ft 141 kts 66°
2026-04-30 06:22 22.29225 113.84023 1163 ft 143 kts 68°
2026-04-30 06:23 22.29554 113.85048 974 ft 145 kts 67°
2026-04-30 06:23 22.29877 113.86063 807 ft 140 kts 68°
2026-04-30 06:23 22.30186 113.87056 577 ft 137 kts 65°
2026-04-30 06:23 22.30504 113.88028 416 ft 139 kts 63°
2026-04-30 06:24 22.30843 113.89035 263 ft 145 kts 65°
2026-04-30 06:24 22.31171 113.90053 54 ft 141 kts 67°
2026-04-30 06:24 22.31463 113.90933 45 ft 93 kts 71°
2026-04-30 06:24 22.31594 113.91349 45 ft 44 kts 70°
2026-04-30 06:25 22.31659 113.91660 43 ft 42 kts 94°
2026-04-30 06:25 22.31622 113.91890 43 ft 11 kts 101°
2026-04-30 06:25 22.31618 113.91972 43 ft 11 kts 79°
2026-04-30 06:25 22.31594 113.92029 43 ft 8 kts 153°
2026-04-30 06:26 22.31560 113.92067 43 ft 6 kts 109°
2026-04-30 06:26 22.31566 113.92119 43 ft 8 kts 71°
2026-04-30 06:26 22.31588 113.92187 43 ft 11 kts 71°
2026-04-30 06:26 22.31627 113.92308 43 ft 25 kts 71°
2026-04-30 06:27 22.31610 113.92502 43 ft 32 kts 116°
2026-04-30 06:27 22.31508 113.92732 43 ft 33 kts 112°
2026-04-30 06:27 22.31504 113.92865 43 ft 8 kts 69°
2026-04-30 06:27 22.31469 113.92915 43 ft 11 kts 162°
2026-04-30 06:28 22.31423 113.92931 43 ft 0 kts 161°